Regional Weather Roundup
Issued by NWS

Home | Current Version | Previous Version | Text Only | Print | Product List | Glossary On
Versions: 1 2 3 4 5 6 7 8 9 10 11 12 13 14 15 16 17 18 19 20 21 22 23 24 25 26 27 28 29 30 31 32 33 34 35 36 37 38 39 40 41 42 43 44 45 46 47 48 49 50
000
ASUS45 KTFX 250310
RWRMT
MONTANA REGIONAL WEATHER ROUNDUP
NATIONAL WEATHER SERVICE GREAT FALLS MT
900 PM MDT TUE APR 24 2018

NOTE: "FAIR" INDICATES FEW OR NO CLOUDS BELOW 12000 FEET WITH NO
SIGNIFICANT WEATHER AND/OR OBSTRUCTIONS TO VISIBILITY.

MTZ001>007-043-250400-
WEST OF THE DIVIDE

CITY           SKY/WX    TMP DP  RH WIND       PRES   REMARKS
KALISPELL      FAIR      51  28  41 W5        30.18F
MISSOULA       FAIR      55  27  34 E6        30.19S
BUTTE          FAIR      45  24  43 S7        30.31S
MULLAN PASS    FAIR      49  11  21 SW6       30.26S
ANACONDA         N/A     46  10  23 S5        30.27S
DEER LODGE       N/A     52  12  20 SW7       30.28S
HAMILTON         N/A     54  28  37 MISG      30.22R
PLAINS           N/A     56  30  37 CALM      30.17S
RONAN            N/A     50  39  66 NE6       30.21R
$$

MTZ008-052>055-250400-
SOUTHWEST MONTANA

CITY           SKY/WX    TMP DP  RH WIND       PRES   REMARKS
BOZEMAN        FAIR      47  30  51 CALM      30.32F
DILLON         FAIR      44  27  51 SE8       30.31S
ENNIS          CLEAR     39  27  60 S9        30.36F
W YELLOWSTONE  FAIR      34  19  55 CALM      30.35S
THREE FORKS      N/A     44  35  70 CALM      30.27F
TWIN BRIDGES     N/A     45  27  49 E6        30.27
$$

MTZ009-010-012-014-046-048-049-054-250400-
EAST SLOPES AND CENTRAL MONTANA

CITY           SKY/WX    TMP DP  RH WIND       PRES   REMARKS
CUT BANK       FAIR      53  16  23 W20       30.14S
GREAT FALLS    FAIR      52  18  26 S17       30.18F
HELENA         FAIR      51  28  41 CALM      30.24S
CHOTEAU          N/A     54  12  19 S13       30.17S
WHITE SULPHUR    N/A     43  27  52 S15       30.28S
$$

MTZ011-013-016-021-045-047-050-051-250400-
NORTH CENTRAL MONTANA

CITY           SKY/WX    TMP DP  RH WIND       PRES   REMARKS
HAVRE          FAIR      51  27  39 SE8       30.15S
LEWISTOWN      FAIR      45  23  42 S9        30.23F
N BAR RANCH    FAIR      45  14  29 CALM      30.28F
CHINOOK          N/A     54  30  40 S5        30.16S
$$

MTZ017>020-022>027-061-062-250400-
NORTHEAST MONTANA

CITY           SKY/WX    TMP DP  RH WIND       PRES   REMARKS
GLASGOW        FAIR      54  29  38 S10       30.24S
GLENDIVE       FAIR      47  34  60 SW12      30.33S
JORDAN           N/A     45  34  65 S5        30.27F
MALTA          CLEAR     54  34  47 S13       30.19S
SIDNEY         FAIR      49  34  56 SW9       30.30S
WOLF POINT     FAIR      52  30  43 S8        30.27S
PLENTYWOOD       N/A     52  25  35 CALM      30.24F
SCOBEY           N/A     46  22  39 CALM      30.21
$$

MTZ028>42-056>058-250400-
SOUTHCENTRAL AND SOUTHEAST MONTANA

CITY           SKY/WX    TMP DP  RH WIND       PRES   REMARKS
BAKER          FAIR      38  33  82 S10       30.37F WCI  31
BILLINGS       FAIR      50  28  42 S7        30.32F
LIVINGSTON     FAIR      44  35  70 NW5       30.31S
MILES CITY     FAIR      45  30  55 S7        30.33F
BIG TIMBER     CLEAR     41  32  70 SW12      30.32S
EKALAKA          N/A     39  25  58 SE3       30.32F
FORSYTH          N/A     46  34  61 S7        30.32F
$$

REGIONAL REPORTS...DAKOTAS

CITY           SKY/WX    TMP DP  RH WIND       PRES   REMARKS
WILLISTON      FAIR      51  26  37 SW5       30.28S
MINOT          FAIR      47  22  37 SW5       30.28S
DICKINSON      FAIR      43  30  60 SW13      30.33S
BEACH          FAIR      41  30  65 S13       30.37S
CROSBY         FAIR      45  30  57 S10       30.25S
TIOGA          FAIR      45  30  57 S8        30.29S
WATFORD CITY   FAIR      46  30  53 SW6       30.30S
BISMARCK       FAIR      49  24  37 CALM      30.35S
GRAND FORKS    FAIR      36  30  79 CALM      30.33S
FARGO          FAIR      41  28  60 N5        30.34R
BUFFALO SD       N/A     47  23  38 W3        30.33R
RAPID CITY     FAIR      34  24  67 N6        30.40S WCI  29
$$

REGIONAL REPORTS...WYOMING/IDAHO/WASHINGTON

CITY           SKY/WX    TMP DP  RH WIND       PRES   REMARKS
GILLETTE       FAIR      28  25  88 S5        30.38F
SHERIDAN       FAIR      38  27  64 SW6       30.36S
BUFFALO WY     FAIR      39  24  55 S3        30.39S
CODY           FAIR      39  23  52 SE7       30.38R
YELLOWSTONE LA   N/A     26  17  68 NW3       30.43R
IDAHO FALLS    FAIR      49  32  52 N6        30.31S
SALMON         FAIR      50  27  40 SE5       30.25S
BOISE          FAIR      61  33  35 SE6       30.19R
SPOKANE        MOCLDY    64  33  31 SW5       30.14F
$$

REGIONAL REPORTS...ALBERTA

CITY           SKY/WX    TMP DP  RH WIND       PRES   REMARKS
CALGARY        MOCLDY    63   5  10 W8        30.02F
CARDSTON         N/A     54  18  24 SW9         N/A
EDMONTON       CLEAR     55  27  33 NW8       29.95S
FORT MCMURRAY  MOCLDY    57  27  30 NW8       29.87R
HIGH LEVEL     PTCLDY    50  28  43 NW5       29.92R
LETHBRIDGE     MOCLDY    57  21  24 SW14      30.07F
LLOYDMINSTER   MOCLDY    52  28  40 NW6       29.94F
MEDICINE HAT   MOCLDY    61  21  21 S15       30.03F
MILK RIVER       N/A     52  23  32 SW9         N/A
PEACE RIVER    MOCLDY    48  30  49 W12       29.96S
PINCHER CREEK  MOCLDY    54  19  26 SW7       30.12F
WATERTON GATE    N/A     52  19  28 SW13G18     N/A
$$

REGIONAL REPORTS...SASKATCHEWAN

CITY           SKY/WX    TMP DP  RH WIND       PRES   REMARKS
CORONACH         N/A     46  25  42 S8          N/A
CYPRESS HILLS    N/A     48  18  29 S9          N/A
ESTEVAN        CLOUDY    50  28  43 S10       30.22F
MOOSE JAW        N/A     54  23  30 S13G18      N/A
PRINCE ALBERT  MOCLDY    55  32  41 SW14      29.94F
REGINA         MOCLDY    46  27  46 S10       30.14F
ROCKGLEN         N/A     48  25  40 SW16        N/A
SASKATOON      MOCLDY    55  27  33 S12       30.00F
SWIFT CURRENT  MOCLDY    50  27  40 S13       30.10F
VAL MARIE        N/A     48  28  46 S10         N/A
$$



USA.gov is the U.S. government's official web portal to all federal, state and local government web resources and services.